| time (UTC) | temp F | wind direction | speed MPH | gust MPH | rain 1hr in | rain 24hr in | rain mn in | humidity % | barometer mb |
| 20260510202413 | 76 | 87 | 2.0 | 3.0 | 0.00 | 0.00 | 0.00 | 40 | 1020.5 |
| 20260510201412 | 75 | 40 | 1.0 | 3.0 | 0.00 | 0.00 | 0.00 | 42 | 1020.4 |
| 20260510200410 | 74 | 32 | 1.0 | 3.0 | 0.00 | 0.00 | 0.00 | 42 | 1020.3 |
| 20260510195410 | 74 | 83 | 2.0 | 3.0 | 0.00 | 0.00 | 0.00 | 38 | 1020.5 |
| 20260510194409 | 73 | 107 | 1.0 | 3.0 | 0.00 | 0.00 | 0.00 | 45 | 1020.6 |
| 20260510193305 | 75 | 65 | 1.0 | 3.0 | 0.00 | 0.00 | 0.00 | 41 | 1020.7 |
| 20260510192306 | 75 | 61 | 1.0 | 5.0 | 0.00 | 0.00 | 0.00 | 46 | 1021.3 |
| 20260510191232 | 74 | 96 | 2.0 | 5.0 | 0.00 | 0.00 | 0.00 | 45 | 1021.5 |
| 20260510190200 | 73 | 10 | 1.0 | 4.0 | 0.00 | 0.00 | 0.00 | 43 | 1021.3 |
| 20260510185158 | 73 | 48 | 1.0 | 4.0 | 0.00 | 0.00 | 0.00 | 45 | 1021.6 |
| 20260510184157 | 72 | 33 | 2.0 | 4.0 | 0.00 | 0.00 | 0.00 | 44 | 1021.5 |
| 20260510183125 | 71 | 73 | 1.0 | 3.0 | 0.00 | 0.00 | 0.00 | 48 | 1021.3 |
| 20260510182124 | 71 | 67 | 2.0 | 4.0 | 0.00 | 0.00 | 0.00 | 49 | 1021.3 |
| 20260510181051 | 70 | 80 | 2.0 | 4.0 | 0.00 | 0.00 | 0.00 | 49 | 1021.5 |
| 20260510180049 | 69 | 74 | 2.0 | 4.0 | 0.00 | 0.00 | 0.00 | 49 | 1021.4 |
| 20260510175049 | 68 | 14 | 1.0 | 3.0 | 0.00 | 0.00 | 0.00 | 47 | 1021.7 |
| 20260510174047 | 68 | 44 | 1.0 | 3.0 | 0.00 | 0.00 | 0.00 | 48 | 1021.9 |
| 20260510173046 | 67 | 25 | 2.0 | 4.0 | 0.00 | 0.00 | 0.00 | 49 | 1021.8 |
| 20260510172045 | 66 | 39 | 1.0 | 4.0 | 0.00 | 0.00 | 0.00 | 49 | 1022.0 |
| 20260510171044 | 65 | 62 | 1.0 | 4.0 | 0.00 | 0.00 | 0.00 | 51 | 1022.0 |
| 20260510170043 | 64 | 28 | 1.0 | 3.0 | 0.00 | 0.00 | 0.00 | 52 | 1021.9 |
| 20260510165042 | 63 | 41 | 1.0 | 3.0 | 0.00 | 0.00 | 0.00 | 51 | 1021.7 |
| 20260510164040 | 62 | 35 | 0.0 | 3.0 | 0.00 | 0.00 | 0.00 | 51 | 1021.7 |
| 20260510163039 | 62 | 25 | 1.0 | 3.0 | 0.00 | 0.00 | 0.00 | 53 | 1022.0 |
| 20260510162038 | 60 | 37 | 2.0 | 3.0 | 0.00 | 0.00 | 0.00 | 55 | 1021.8 |
| 20260510161006 | 59 | 17 | 1.0 | 4.0 | 0.00 | 0.00 | 0.00 | 56 | 1021.8 |
| 20260510160005 | 59 | 58 | 1.0 | 4.0 | 0.00 | 0.00 | 0.00 | 56 | 1021.8 |
| 20260510154932 | 58 | 11 | 2.0 | 4.0 | 0.00 | 0.00 | 0.00 | 57 | 1021.8 |
| 20260510153932 | 58 | 13 | 2.0 | 4.0 | 0.00 | 0.00 | 0.00 | 56 | 1021.8 |
| 20260510152931 | 57 | 29 | 1.0 | 4.0 | 0.00 | 0.00 | 0.00 | 59 | 1021.8 |
| 20260510151859 | 57 | 25 | 1.0 | 3.0 | 0.00 | 0.00 | 0.00 | 58 | 1021.9 |
| 20260510150858 | 56 | 38 | 1.0 | 3.0 | 0.00 | 0.00 | 0.00 | 59 | 1022.0 |
| 20260510145857 | 55 | 338 | 0.0 | 2.0 | 0.00 | 0.00 | 0.00 | 59 | 1022.1 |
| 20260510144856 | 55 | 334 | 1.0 | 3.0 | 0.00 | 0.00 | 0.00 | 59 | 1022.5 |
| 20260510143855 | 54 | 34 | 1.0 | 3.0 | 0.00 | 0.00 | 0.00 | 62 | 1022.4 |
| 20260510142853 | 53 | 36 | 0.0 | 3.0 | 0.00 | 0.00 | 0.00 | 62 | 1022.4 |
| 20260510141821 | 53 | 39 | 2.0 | 3.0 | 0.00 | 0.00 | 0.00 | 65 | 1022.4 |
| 20260510140820 | 52 | 136 | 1.0 | 2.0 | 0.00 | 0.00 | 0.00 | 67 | 1022.4 |
| 20260510135819 | 51 | 136 | 0.0 | 2.0 | 0.00 | 0.00 | 0.00 | 69 | 1022.3 |
| 20260510134819 | 50 | 146 | 1.0 | 2.0 | 0.00 | 0.00 | 0.00 | 70 | 1022.2 |
| 20260510133818 | 50 | 146 | 1.0 | 4.0 | 0.00 | 0.00 | 0.00 | 73 | 1022.5 |
| 20260510132817 | 48 | 148 | 1.0 | 4.0 | 0.00 | 0.00 | 0.00 | 76 | 1022.4 |
| 20260510131816 | 47 | 340 | 0.0 | 2.0 | 0.00 | 0.00 | 0.00 | 78 | 1022.3 |
| 20260510130815 | 46 | 338 | 1.0 | 2.0 | 0.00 | 0.00 | 0.00 | 79 | 1022.2 |
| 20260510125814 | 45 | 42 | 0.0 | 0.0 | 0.00 | 0.00 | 0.00 | 80 | 1022.2 |
| 20260510124813 | 45 | 169 | 0.0 | 0.0 | 0.00 | 0.00 | 0.00 | 79 | 1022.2 |
| 20260510123812 | 44 | 169 | 0.0 | 0.0 | 0.00 | 0.00 | 0.00 | 78 | 1022.2 |
| 20260510122811 | 45 | 168 | 0.0 | 0.0 | 0.00 | 0.00 | 0.00 | 77 | 1022.3 |
| 20260510121809 | 45 | 212 | 0.0 | 0.0 | 0.00 | 0.00 | 0.00 | 77 | 1022.4 |
| 20260510120808 | 45 | 212 | 0.0 | 0.0 | 0.00 | 0.00 | 0.00 | 77 | 1022.6 |
| 20260510115808 | 45 | 212 | 0.0 | 0.0 | 0.00 | 0.00 | 0.00 | 77 | 1022.5 |
| 20260510114807 | 45 | 211 | 0.0 | 0.0 | 0.00 | 0.00 | 0.00 | 76 | 1022.6 |
| 20260510113734 | 46 | 210 | 0.0 | 0.0 | 0.00 | 0.00 | 0.00 | 76 | 1022.6 |
| 20260510112702 | 46 | 211 | 0.0 | 0.0 | 0.00 | 0.00 | 0.00 | 75 | 1022.6 |
| 20260510111630 | 46 | 211 | 0.0 | 0.0 | 0.00 | 0.00 | 0.00 | 75 | 1022.6 |
| 20260510110629 | 46 | 211 | 0.0 | 0.0 | 0.00 | 0.00 | 0.00 | 75 | 1022.7 |
| 20260510105628 | 46 | 211 | 0.0 | 0.0 | 0.00 | 0.00 | 0.00 | 75 | 1022.7 |
| 20260510104627 | 46 | 124 | 0.0 | 0.0 | 0.00 | 0.00 | 0.00 | 75 | 1022.7 |
| 20260510103626 | 46 | 124 | 0.0 | 0.0 | 0.00 | 0.00 | 0.00 | 76 | 1022.7 |
| 20260510102625 | 46 | 125 | 0.0 | 0.0 | 0.00 | 0.00 | 0.00 | 75 | 1023.0 |
| 20260510101552 | 47 | 155 | 0.0 | 0.0 | 0.00 | 0.00 | 0.00 | 75 | 1023.1 |
| 20260510100551 | 47 | 158 | 0.0 | 0.0 | 0.00 | 0.00 | 0.00 | 75 | 1023.2 |
| 20260510095550 | 47 | 158 | 0.0 | 1.0 | 0.00 | 0.00 | 0.00 | 75 | 1023.2 |
| 20260510094549 | 47 | 169 | 0.0 | 1.0 | 0.00 | 0.00 | 0.00 | 76 | 1023.1 |
| 20260510093446 | 47 | 175 | 0.0 | 0.0 | 0.00 | 0.00 | 0.00 | 76 | 1023.1 |
| 20260510092342 | 47 | 275 | 0.0 | 0.0 | 0.00 | 0.00 | 0.00 | 76 | 1023.2 |
| 20260510091341 | 47 | 279 | 0.0 | 0.0 | 0.00 | 0.00 | 0.00 | 75 | 1023.2 |
| 20260510090340 | 47 | 279 | 0.0 | 0.0 | 0.00 | 0.00 | 0.00 | 74 | 1023.3 |
| 20260510085340 | 48 | 280 | 0.0 | 0.0 | 0.00 | 0.00 | 0.00 | 74 | 1023.3 |
| 20260510084307 | 48 | 198 | 0.0 | 0.0 | 0.00 | 0.00 | 0.00 | 73 | 1023.2 |
| 20260510083306 | 48 | 198 | 0.0 | 0.0 | 0.00 | 0.00 | 0.00 | 74 | 1023.2 |
| 20260510082306 | 48 | 198 | 0.0 | 2.0 | 0.00 | 0.00 | 0.00 | 74 | 1023.2 |
| 20260510081303 | 48 | 198 | 1.0 | 4.0 | 0.00 | 0.00 | 0.00 | 74 | 1023.5 |
| 20260510080302 | 48 | 198 | 1.0 | 4.0 | 0.00 | 0.00 | 0.00 | 74 | 1023.1 |
| 20260510075230 | 48 | 213 | 1.0 | 3.0 | 0.00 | 0.00 | 0.00 | 73 | 1023.5 |
| 20260510074229 | 48 | 221 | 1.0 | 3.0 | 0.00 | 0.00 | 0.00 | 74 | 1023.8 |
| 20260510073228 | 48 | 220 | 1.0 | 3.0 | 0.00 | 0.00 | 0.00 | 74 | 1023.5 |
| 20260510072227 | 49 | 222 | 0.0 | 4.0 | 0.00 | 0.00 | 0.00 | 73 | 1023.6 |
| 20260510071226 | 49 | 222 | 0.0 | 5.0 | 0.00 | 0.00 | 0.00 | 73 | 1023.5 |
| 20260510070224 | 49 | 217 | 4.0 | 5.0 | 0.00 | 0.00 | 0.00 | 74 | 1023.4 |
| 20260510065222 | 49 | 163 | 0.0 | 5.0 | 0.00 | 0.00 | 0.00 | 74 | 1023.5 |
| 20260510064150 | 48 | 224 | 0.0 | 3.0 | 0.00 | 0.00 | 0.00 | 75 | 1023.4 |
| 20260510063149 | 48 | 223 | 0.0 | 4.0 | 0.00 | 0.00 | 0.00 | 75 | 1023.5 |
| 20260510062148 | 48 | 224 | 0.0 | 5.0 | 0.00 | 0.00 | 0.00 | 74 | 1023.3 |
| 20260510061146 | 48 | 232 | 3.0 | 5.0 | 0.00 | 0.00 | 0.00 | 74 | 1023.5 |
| 20260510060145 | 49 | 221 | 3.0 | 4.0 | 0.00 | 0.00 | 0.00 | 73 | 1023.6 |
| 20260510055144 | 50 | 157 | 1.0 | 3.0 | 0.00 | 0.00 | 0.00 | 71 | 1023.7 |
| 20260510054143 | 51 | 158 | 2.0 | 3.0 | 0.00 | 0.00 | 0.00 | 70 | 1023.8 |
| 20260510053111 | 51 | 159 | 0.0 | 2.0 | 0.00 | 0.00 | 0.00 | 69 | 1023.7 |
| 20260510052110 | 51 | 159 | 0.0 | 5.0 | 0.00 | 0.00 | 0.00 | 69 | 1024.0 |
| 20260510051109 | 52 | 159 | 2.0 | 5.0 | 0.00 | 0.00 | 0.00 | 69 | 1024.0 |
| 20260510050108 | 52 | 150 | 2.0 | 4.0 | 0.00 | 0.00 | 0.00 | 69 | 1023.9 |
| 20260510045107 | 52 | 134 | 2.0 | 3.0 | 0.00 | 0.00 | 0.00 | 68 | 1023.9 |
| 20260510044105 | 52 | 142 | 2.0 | 3.0 | 0.00 | 0.00 | 0.00 | 67 | 1024.2 |
| 20260510043104 | 53 | 142 | 2.0 | 3.0 | 0.00 | 0.00 | 0.00 | 67 | 1023.9 |
| 20260510042103 | 53 | 137 | 2.0 | 3.0 | 0.00 | 0.00 | 0.00 | 66 | 1023.9 |
| 20260510041031 | 54 | 137 | 2.0 | 4.0 | 0.00 | 0.00 | 0.00 | 65 | 1023.8 |
| 20260510035958 | 55 | 142 | 1.0 | 5.0 | 0.00 | 0.00 | 0.00 | 65 | 1023.8 |
| 20260510034957 | 55 | 149 | 2.0 | 5.0 | 0.00 | 0.00 | 0.00 | 65 | 1023.9 |
| 20260510033955 | 56 | 158 | 3.0 | 5.0 | 0.00 | 0.00 | 0.00 | 64 | 1023.9 |
| 20260510032922 | 57 | 153 | 2.0 | 5.0 | 0.00 | 0.00 | 0.00 | 63 | 1023.7 |
| 20260510031921 | 58 | 111 | 2.0 | 3.0 | 0.00 | 0.00 | 0.00 | 60 | 1023.9 |
| 20260510030746 | 60 | 88 | 0.0 | 0.0 | 0.00 | 0.00 | 0.00 | 57 | 1024.0 |
| 20260510025745 | 61 | 88 | 0.0 | 3.0 | 0.00 | 0.00 | 0.00 | 55 | 1024.1 |
| 20260510024744 | 62 | 80 | 2.0 | 3.0 | 0.00 | 0.00 | 0.00 | 51 | 1024.1 |
| 20260510023609 | 63 | 87 | 1.0 | 3.0 | 0.00 | 0.00 | 0.00 | 51 | 1023.7 |
| 20260510022537 | 63 | 83 | 1.0 | 3.0 | 0.00 | 0.00 | 0.00 | 49 | 1023.7 |
| 20260510021504 | 63 | 53 | 1.0 | 4.0 | 0.00 | 0.00 | 0.00 | 48 | 1023.7 |
| 20260510020504 | 64 | 81 | 1.0 | 4.0 | 0.00 | 0.00 | 0.00 | 48 | 1023.5 |
| 20260510015503 | 64 | 41 | 1.0 | 3.0 | 0.00 | 0.00 | 0.00 | 47 | 1023.4 |
| 20260510014501 | 64 | 86 | 2.0 | 7.0 | 0.00 | 0.00 | 0.00 | 46 | 1023.3 |
| 20260510013427 | 65 | 60 | 1.0 | 7.0 | 0.00 | 0.00 | 0.00 | 46 | 1023.4 |
| 20260510012426 | 65 | 26 | 2.0 | 4.0 | 0.00 | 0.00 | 0.00 | 46 | 1023.5 |
| 20260510011425 | 66 | 32 | 2.0 | 4.0 | 0.00 | 0.00 | 0.00 | 45 | 1023.6 |
| 20260510010423 | 66 | 11 | 2.0 | 4.0 | 0.00 | 0.00 | 0.00 | 44 | 1024.0 |
| 20260510005422 | 67 | 66 | 2.0 | 3.0 | 0.00 | 0.00 | 0.00 | 44 | 1023.8 |
| 20260510004420 | 67 | 32 | 1.0 | 3.0 | 0.00 | 0.00 | 0.00 | 43 | 1023.8 |
| 20260510003419 | 67 | 38 | 2.0 | 3.0 | 0.00 | 0.00 | 0.00 | 43 | 1023.9 |
| 20260510002418 | 68 | 67 | 1.0 | 4.0 | 0.00 | 0.00 | 0.00 | 41 | 1023.9 |
| 20260510001416 | 67 | 29 | 1.0 | 4.0 | 0.00 | 0.00 | 0.00 | 42 | 1023.8 |
| 20260510000414 | 67 | 30 | 1.0 | 4.0 | 0.00 | 0.00 | 0.00 | 43 | 1023.7 |
| 20260509235413 | 67 | 20 | 1.0 | 4.0 | 0.00 | 0.00 | 0.00 | 43 | 1023.7 |
| 20260509234310 | 67 | 17 | 1.0 | 3.0 | 0.00 | 0.00 | 0.00 | 46 | 1023.8 |
| 20260509233309 | 66 | 34 | 1.0 | 3.0 | 0.00 | 0.00 | 0.00 | 45 | 1023.8 |
| 20260509232308 | 66 | 29 | 2.0 | 3.0 | 0.00 | 0.00 | 0.00 | 43 | 1023.8 |
| 20260509231307 | 66 | 28 | 2.0 | 5.0 | 0.00 | 0.00 | 0.00 | 45 | 1024.2 |
| 20260509230306 | 66 | 25 | 2.0 | 4.0 | 0.00 | 0.00 | 0.00 | 43 | 1024.2 |
| 20260509225202 | 66 | 253 | 1.0 | 5.0 | 0.00 | 0.00 | 0.00 | 41 | 1024.2 |
| 20260509224201 | 67 | 296 | 2.0 | 6.0 | 0.00 | 0.00 | 0.00 | 40 | 1024.3 |
| 20260509223200 | 66 | 333 | 1.0 | 7.0 | 0.00 | 0.00 | 0.00 | 43 | 1024.3 |
| 20260509222159 | 67 | 15 | 1.0 | 5.0 | 0.00 | 0.00 | 0.00 | 43 | 1024.3 |
| 20260509221158 | 67 | 32 | 1.0 | 3.0 | 0.00 | 0.00 | 0.00 | 42 | 1024.6 |
| 20260509220157 | 67 | 20 | 1.0 | 3.0 | 0.00 | 0.00 | 0.00 | 41 | 1024.6 |
| 20260509215156 | 67 | 15 | 1.0 | 4.0 | 0.00 | 0.00 | 0.00 | 43 | 1024.6 |
| 20260509214155 | 67 | 5 | 2.0 | 4.0 | 0.00 | 0.00 | 0.00 | 43 | 1025.1 |
| 20260509213154 | 67 | 67 | 2.0 | 5.0 | 0.00 | 0.00 | 0.00 | 40 | 1025.1 |
| 20260509212122 | 68 | 11 | 1.0 | 8.0 | 0.00 | 0.00 | 0.00 | 39 | 1025.2 |
| 20260509211049 | 68 | 236 | 3.0 | 8.0 | 0.00 | 0.00 | 0.00 | 34 | 1025.5 |
| 20260509210017 | 67 | 157 | 2.0 | 8.0 | 0.00 | 0.00 | 0.00 | 36 | 1025.4 |
| 20260509204945 | 67 | 230 | 2.0 | 8.0 | 0.00 | 0.00 | 0.00 | 36 | 1025.5 |
| 20260509203841 | 66 | 23 | 2.0 | 6.0 | 0.00 | 0.00 | 0.00 | 36 | 1025.8 |
| 20260509202840 | 66 | 267 | 2.0 | 7.0 | 0.00 | 0.00 | 0.00 | 36 | 1025.8 |